Memphis, TN

7:24 PM CDT on August 23, 2017 (GMT -0500)
Memphis International

Weather History for KMEM - May, 2012

Change the Weather History Date:

Wednesday, May 23, 2012

  Actual Average Record
Temperature  
Mean Temperature 71 °F 74 °F  
Max Temperature 85 °F 83 °F 92 °F (1996)
Min Temperature 57 °F 64 °F 44 °F (1963)
Degree Days  
Heating Degree Days 0 0  
Month to date heating degree days 0 17  
Since 1 July heating degree days 2171 2962  
Cooling Degree Days 6 9  
Month to date cooling degree days 225 146  
Year to date cooling degree days 447 241  
Growing Degree Days 20 (Base 50)    
Moisture  
Dew Point 49 °F    
Average Humidity 53    
Maximum Humidity 80    
Minimum Humidity 26    
Precipitation  
Precipitation 0.00 in 0.16 in 1.49 in (1952)
Month to date precipitation 1.38 4.01  
Year to date precipitation 11.53 23.04  
Snow  
Snow 0.00 in 0.00 in - ()
Month to date snowfall 0.0 0.0  
Since 1 July snowfall 1.4 3.8  
Snow Depth 0.00 in    
Sea Level Pressure  
Sea Level Pressure 29.84 in    
Wind  
Wind Speed 5 mph (SSE)    
Max Wind Speed 13 mph    
Max Gust Speed 22 mph    
Visibility 10 miles    
Events      
T = Trace of Precipitation, MM = Missing Value Source: NWS Daily Summary

Daily Weather History Graph

Daily Weather History Graph

Search for Another Location

Airport or City:

Trip Planner

Search our weather history database for the weather conditions in past years. The results will help you decide how hot, cold, wet, or windy it might be!

Date:

Astronomy

May. 23, 2012 Rise Set
Actual Time 5:50 AM CDT 8:03 PM CDT
Civil Twilight 5:22 AM CDT 8:31 PM CDT
Nautical Twilight 4:46 AM CDT 9:07 PM CDT
Astronomical Twilight 4:08 AM CDT 9:45 PM CDT
Moon 7:54 AM CDT (5/23) 10:25 PM CDT (5/23)
Length of Visible Light 15h 09m
Length of Day
14h 12m
Waxing Crescent, 7% of the Moon is Illuminated
May 23
Waxing Crescent
May 28
First Quarter
Jun 4
Full
Jun 11
Last Quarter
Jun 19
New

Hourly Weather History & Observations

Time (CDT) Temp. Dew Point Humidity Pressure Visibility Wind Dir Wind Speed Gust Speed Precip Events Conditions
12:54 AM 63.0 °F 50.0 °F 63% 29.88 in 10.0 mi Calm Calm - N/A   Clear
1:54 AM 60.1 °F 51.1 °F 72% 29.87 in 10.0 mi Calm Calm - N/A   Clear
2:54 AM 60.8 °F 51.8 °F 72% 29.87 in 10.0 mi Calm Calm - N/A   Clear
3:54 AM 59.0 °F 51.1 °F 75% 29.87 in 10.0 mi Calm Calm - N/A   Clear
4:54 AM 57.9 °F 51.1 °F 78% 29.87 in 10.0 mi Calm Calm - N/A   Clear
5:54 AM 57.9 °F 50.0 °F 75% 29.87 in 10.0 mi Calm Calm - N/A   Partly Cloudy
6:54 AM 62.1 °F 50.0 °F 65% 29.88 in 10.0 mi Calm Calm - N/A   Partly Cloudy
7:54 AM 66.9 °F 53.1 °F 61% 29.89 in 10.0 mi Variable 3.5 mph - N/A   Partly Cloudy
8:54 AM 73.0 °F 53.1 °F 49% 29.90 in 10.0 mi South 3.5 mph - N/A   Partly Cloudy
9:54 AM 75.9 °F 48.9 °F 38% 29.90 in 10.0 mi South 9.2 mph - N/A   Partly Cloudy
10:54 AM 77.0 °F 48.9 °F 37% 29.90 in 10.0 mi Variable 4.6 mph - N/A   Partly Cloudy
11:54 AM 79.0 °F 48.9 °F 35% 29.88 in 10.0 mi SE 6.9 mph - N/A   Partly Cloudy
12:54 PM 80.1 °F 46.9 °F 31% 29.87 in 10.0 mi Calm Calm - N/A   Partly Cloudy
1:54 PM 82.0 °F 50.0 °F 33% 29.84 in 10.0 mi Variable 4.6 mph - N/A   Partly Cloudy
2:54 PM 82.9 °F 48.9 °F 31% 29.83 in 10.0 mi SSW 10.4 mph - N/A   Partly Cloudy
3:54 PM 84.9 °F 48.9 °F 29% 29.81 in 10.0 mi South 8.1 mph - N/A   Partly Cloudy
4:54 PM 84.0 °F 46.9 °F 27% 29.80 in 10.0 mi SE 8.1 mph - N/A   Partly Cloudy
5:54 PM 84.0 °F 46.9 °F 27% 29.78 in 10.0 mi South 9.2 mph - N/A   Partly Cloudy
6:54 PM 82.9 °F 45.0 °F 26% 29.77 in 10.0 mi SSE 8.1 mph - N/A   Partly Cloudy
7:54 PM 80.1 °F 43.0 °F 27% 29.78 in 10.0 mi SE 5.8 mph - N/A   Partly Cloudy
8:54 PM 78.1 °F 45.0 °F 31% 29.77 in 10.0 mi SE 5.8 mph - N/A   Partly Cloudy
9:54 PM 75.9 °F 48.9 °F 38% 29.78 in 10.0 mi SE 5.8 mph - N/A   Clear
10:54 PM 73.9 °F 52.0 °F 46% 29.78 in 10.0 mi SSE 6.9 mph - N/A   Clear
11:54 PM 73.0 °F 53.1 °F 49% 29.77 in 10.0 mi SSE 10.4 mph - N/A   Clear